Regional Weather Roundup
Issued by NWS Albany, NY

Home | Current Version | Previous Version | Graphics & Text | Print | Product List | Glossary On
Versions: 1 2 3 4 5 6 7 8 9 10 11 12 13 14 15 16 17 18 19 20 21 22 23 24 25 26 27 28 29 30 31 32 33 34 35 36 37 38 39 40 41 42 43 44 45 46 47 48 49 50
000
ASUS41 KALY 030910
RWRALY

NEW YORK STATE HOURLY WEATHER ROUNDUP
NATIONAL WEATHER SERVICE ALBANY NY
500 AM EDT SUN MAY 03 2015

NOTE: "FAIR" INDICATES FEW OR NO CLOUDS BELOW 12,000 FEET WITH NO
SIGNIFICANT WEATHER AND/OR NO OBSTRUCTIONS TO VISIBILITY.

NYZ032-033-038>043-046>054-057>066-NYZ062>081-031000-
EAST


CITY           SKY/WX    TMP DP  RH WIND       PRES   REMARKS
ALBANY         PTCLDY    48  38  68 CALM      30.02R
GLENS FALLS    PTCLDY    42  36  79 CALM      30.00R
POUGHKEEPSIE   CLEAR     43  38  82 CALM      30.03R
NEWBURGH       CLEAR     45  41  87 CALM      30.04R
MONTGOMERY     CLEAR     40  38  93 CALM      30.03R
WHITE PLAINS   CLEAR     43  39  86 CALM      30.04R
ISLIP          CLEAR     44  39  82 CALM      30.04S
NEW YORK CITY  PTCLDY    51  36  56 SW6       30.05R
CENTRAL PARK   CLEAR     51  34  52 CALM      30.07S
$$

NYZ005>009-017-018-044>046-055-056-031000-
CENTRAL


CITY           SKY/WX    TMP DP  RH WIND       PRES   REMARKS
FULTON         PTCLDY    43  38  82 CALM      30.01S
SYRACUSE       PTCLDY    48  38  68 E5        30.01S
ROME           CLEAR     41  36  82 CALM      30.04S
ELMIRA         MOCLDY    39  36  89 CALM      30.06R
BINGHAMTON     CLEAR     51  34  52 W6        30.04R
MONTICELLO     CLEAR     43  34  70 CALM      30.06R
$$

NYZ026>034-041>043-031000-
NORTH


CITY           SKY/WX    TMP DP  RH WIND       PRES   REMARKS
WATERTOWN      CLEAR     48  34  58 SW3       30.00R
FORT DRUM      NOT AVBL
MASSENA        PTCLDY    51  37  58 SW5       29.96R
SARANAC LAKE   PTCLDY    32  31  96 CALM      29.98R
PLATTSBURGH    PTCLDY    47  40  76 CALM      29.94S
$$

NYZ001>004-010>016-019>021-031000-
WEST


CITY           SKY/WX    TMP DP  RH WIND       PRES   REMARKS
NIAGARA FALLS  CLEAR     47  36  65 CALM      30.01S
BUFFALO        PTCLDY    49  36  61 S5        30.02R
DUNKIRK        CLEAR     50  36  58 S5        30.03R
JAMESTOWN      CLEAR     46  30  53 S6        30.07R
WELLSVILLE     CLEAR     50  28  42 CALM      30.07S
ROCHESTER      PTCLDY    50  38  63 SW7       30.02R
PENN YAN       PTCLDY    49  38  65 SW9       30.03S
$$

             KEY
       WCI = WIND CHILL INDEX
       VSB = VISIBILITY
       HX  = HEAT INDEX
$$



USA.gov is the U.S. government's official web portal to all federal, state and local government web resources and services.